Weather History for Oakland, CA

Change the Weather History Date:

Thursday, June 26, 2014

  Actual Average Record
Temperature  
Mean Temperature 65 °F 63 °F  
Max Temperature 70 °F 71 °F 99 °F (2003)
Min Temperature 59 °F 55 °F 47 °F (1965)
Degree Days  
Heating Degree Days 0 3  
Month to date heating degree days 70 94  
Since 1 June heating degree days 70 94  
Since 1 July heating degree days 2339 2864  
Cooling Degree Days 0 1  
Month to date cooling degree days 13 15  
Year to date cooling degree days 57 31  
Since 1 June cooling degree days 13 15  
Growing Degree Days 14 (Base 50)    
Moisture  
Dew Point 55 °F    
Average Humidity 74    
Maximum Humidity 90    
Minimum Humidity 57    
Precipitation  
Precipitation T in 0.00 in 0.00 in (2015)
Month to date precipitation T 0.17  
Year to date precipitation 7.98 13.21  
Since 1 July precipitation 10.05 20.80  
Sea Level Pressure  
Sea Level Pressure 29.99 in    
Wind  
Wind Speed 12 mph (West)    
Max Wind Speed 18 mph    
Max Gust Speed 32 mph    
Visibility 10 miles    
Events Rain    
T = Trace of Precipitation, MM = Missing Value Source: NWS Daily Summary

Daily Weather History Graph

Daily Weather History Graph

Search for Another Location

Airport:

Trip Planner

Search our weather history database for the weather conditions in past years. The results will help you decide how hot, cold, wet, or windy it might be!

Date:

Astronomy

Jun. 26, 2014 Rise Set
Actual Time 5:48 AM PDT 8:34 PM PDT
Civil Twilight 5:17 AM PDT 9:05 PM PDT
Nautical Twilight 4:38 AM PDT 9:45 PM PDT
Astronomical Twilight 3:54 AM PDT 10:29 PM PDT
Moon 5:31 AM PDT (6/26) 8:01 PM PDT (6/26)
Length of Visible Light 15h 48m
Length of Day
14h 45m
Waning Crescent, 0% of the Moon is Illuminated
Jun 26
Waning Crescent
Jun 27
New
Jul 5
First Quarter
Jul 12
Full
Jul 18
Last Quarter

Hourly Weather History & Observations

Time (PDT) Temp. Dew Point Humidity Pressure Visibility Wind Dir Wind Speed Gust Speed Precip Events Conditions
12:16 AM 60.8 °F 57.2 °F 88% 29.98 in 10.0 mi West 17.3 mph - N/A   Mostly Cloudy
12:53 AM 60.1 °F 57.0 °F 90% 29.98 in 7.0 mi WSW 11.5 mph - N/A   Overcast
1:53 AM 59.0 °F 55.9 °F 90% 29.98 in 10.0 mi WSW 13.8 mph - 0.00 in Rain Light Rain
2:09 AM 59.0 °F 55.4 °F 88% 29.98 in 10.0 mi WSW 10.4 mph - N/A Rain Light Rain
2:53 AM 60.1 °F 57.0 °F 90% 29.97 in 10.0 mi West 13.8 mph - 0.00 in   Overcast
3:53 AM 59.0 °F 55.9 °F 90% 29.97 in 10.0 mi West 11.5 mph - N/A   Overcast
4:31 AM 59.0 °F 55.4 °F 88% 29.98 in 10.0 mi West 13.8 mph - N/A   Overcast
4:53 AM 59.0 °F 55.9 °F 90% 29.97 in 10.0 mi West 12.7 mph - N/A   Overcast
5:53 AM 60.1 °F 55.9 °F 86% 29.98 in 10.0 mi WSW 3.5 mph - N/A   Overcast
6:53 AM 60.1 °F 55.0 °F 83% 29.98 in 10.0 mi West 5.8 mph - N/A   Overcast
7:27 AM 60.8 °F 55.4 °F 82% 29.99 in 10.0 mi West 15.0 mph - N/A   Overcast
7:48 AM 60.8 °F 55.4 °F 82% 29.99 in 10.0 mi SW 11.5 mph - N/A   Overcast
7:53 AM 60.1 °F 55.9 °F 86% 29.99 in 10.0 mi SW 11.5 mph - N/A   Overcast
8:50 AM 62.6 °F 55.4 °F 77% 30.00 in 10.0 mi WSW 11.5 mph - N/A   Mostly Cloudy
8:53 AM 63.0 °F 55.0 °F 75% 30.00 in 10.0 mi West 11.5 mph - N/A   Mostly Cloudy
9:53 AM 64.0 °F 53.1 °F 67% 30.00 in 10.0 mi WSW 10.4 mph - N/A   Scattered Clouds
10:53 AM 64.9 °F 55.0 °F 70% 30.00 in 10.0 mi WSW 10.4 mph - N/A   Partly Cloudy
11:53 AM 66.0 °F 54.0 °F 65% 30.01 in 10.0 mi WSW 11.5 mph - N/A   Partly Cloudy
12:53 PM 66.9 °F 53.1 °F 61% 30.00 in 10.0 mi West 11.5 mph 19.6 mph N/A   Partly Cloudy
1:53 PM 69.1 °F 53.1 °F 57% 29.99 in 10.0 mi West 13.8 mph - N/A   Partly Cloudy
2:53 PM 70.0 °F 53.1 °F 55% 30.00 in 10.0 mi West 13.8 mph - N/A   Scattered Clouds
3:53 PM 69.1 °F 53.1 °F 57% 29.98 in 10.0 mi West 9.2 mph - N/A   Scattered Clouds
4:53 PM 68.0 °F 53.1 °F 59% 29.98 in 10.0 mi West 13.8 mph - N/A   Scattered Clouds
5:53 PM 66.9 °F 53.1 °F 61% 29.99 in 10.0 mi West 13.8 mph - N/A   Scattered Clouds
6:53 PM 64.9 °F 53.1 °F 65% 29.98 in 10.0 mi West 13.8 mph - N/A   Scattered Clouds
7:53 PM 63.0 °F 53.1 °F 70% 29.97 in 10.0 mi West 12.7 mph - N/A   Scattered Clouds
8:53 PM 61.0 °F 54.0 °F 78% 29.98 in 10.0 mi West 13.8 mph - N/A   Scattered Clouds
9:44 PM 60.8 °F 53.6 °F 77% 29.99 in 10.0 mi West 13.8 mph - N/A   Mostly Cloudy
9:53 PM 61.0 °F 54.0 °F 78% 29.99 in 10.0 mi West 13.8 mph - N/A   Mostly Cloudy
10:37 PM 60.8 °F 53.6 °F 77% 29.99 in 10.0 mi WNW 11.5 mph - N/A   Mostly Cloudy
10:53 PM 61.0 °F 54.0 °F 78% 29.99 in 10.0 mi West 13.8 mph - N/A   Mostly Cloudy
11:53 PM 60.1 °F 54.0 °F 80% 29.99 in 10.0 mi WNW 11.5 mph - N/A   Overcast